Het weer levert geen direct gevaar op.    Er zijn geen waarschuwingen afgegeven.








webcam  webcam


webcam 2   webcam 2


Onweer radar Meer informatie blitzortung!


Regen radar Meer informatie rain snow radar


Bezoek onze andere website:

Template documentation
and downloads

And another site

weerstation wsnoordbergum

weerstationlembeke



Weather Underground Historische gegevens

Dagelijkse Samenvatting november 21, 2018 Eenheden:  Metrisch    Engels   Beide
« Vorige Dag
Volgende Dag »
Dagelijkse Wekelijkse Maandelijkse Jaarlijkse Aangepaste
  Huidig: Hoog: Laag: Gemiddeld:
Temperatuur: 3.8 °C -17.8 °C 2.2 °C 3.3 °C
Dauwpunt: 1.8 °C -17.8 °C 0.8 °C 1.5 °C
Vochtigheid: 87 % Humidity % 80 % 88 %
Wind snelheid: 10.1 km/h 0 km/h 1.8 km/h 9 km/h
Windvlaag: 16.1 km/h 0 km/h - -
Wind:ESE - - ESE
Luchtdruk: 1020.2 hPa 0 hPa 1010.4 hPa -
Neerslag: 0 mm      
Historical Graphs
 
 
Tabel voor november 21, 2018
Tijd Temperatuur Dauwpunt Luchtdruk Wind Wind snelheid Windvlaag Vochtigheid Regenval per uur
-17.8 °C -17.8 °C 0 hPa Calm     Humidity % 0 mm
00:04 2.8 °C 1.5 °C 1010.4 hPa SE 10.1 km/h 20.9 km/h 91 % 0 mm
00:09 2.8 °C 1.5 °C 1010.4 hPa ESE 11.9 km/h 20.9 km/h 91 % 0 mm
00:14 2.8 °C 1.5 °C 1010.4 hPa NE 8.7 km/h 29 km/h 91 % 0 mm
00:19 2.8 °C 1.5 °C 1010.4 hPa SE 6.9 km/h 25.7 km/h 91 % 0 mm
00:24 2.8 °C 1.5 °C 1010.4 hPa East 20.6 km/h 20.9 km/h 91 % 0 mm
00:29 2.8 °C 1.5 °C 1010.4 hPa East 8.7 km/h 29 km/h 91 % 0 mm
00:34 2.8 °C 1.5 °C 1010.4 hPa East 6.9 km/h 20.9 km/h 91 % 0 mm
00:39 2.8 °C 1.5 °C 1010.7 hPa SE 10.1 km/h 25.7 km/h 91 % 0 mm
00:44 2.9 °C 1.6 °C 1010.4 hPa NNE 5 km/h 30.6 km/h 91 % 0 mm
00:49 2.9 °C 1.6 °C 1010.4 hPa South 5 km/h 20.9 km/h 91 % 0 mm
00:54 2.9 °C 1.6 °C 1010.4 hPa ESE 16.9 km/h 29 km/h 91 % 0 mm
00:59 2.9 °C 1.6 °C 1010.4 hPa SSE 13.7 km/h 20.9 km/h 91 % 0 mm
01:04 2.9 °C 1.6 °C 1010.4 hPa SE 11.9 km/h 27.4 km/h 91 % 0 mm
01:09 2.9 °C 1.6 °C 1010.4 hPa SSE 5 km/h 17.7 km/h 91 % 0 mm
01:14 2.9 °C 1.6 °C 1010.4 hPa East 18.7 km/h 22.5 km/h 91 % 0 mm
01:19 2.9 °C 1.6 °C 1010.4 hPa ENE 6.9 km/h 27.4 km/h 91 % 0 mm
01:24 2.9 °C 1.6 °C 1010.4 hPa East 5 km/h 22.5 km/h 91 % 0 mm
01:29 2.9 °C 1.6 °C 1010.7 hPa ESE 18.7 km/h 20.9 km/h 91 % 0 mm
01:34 2.9 °C 1.6 °C 1010.7 hPa ESE 10.1 km/h 27.4 km/h 91 % 0 mm
01:39 2.9 °C 1.6 °C 1010.7 hPa East 13.7 km/h 24.1 km/h 91 % 0 mm
01:44 2.9 °C 1.4 °C 1010.7 hPa SE 22.4 km/h 27.4 km/h 90 % 0 mm
01:49 2.9 °C 1.4 °C 1010.7 hPa ESE 13.7 km/h 22.5 km/h 90 % 0 mm
01:54 2.9 °C 1.4 °C 1010.7 hPa ESE 20.6 km/h 25.7 km/h 90 % 0 mm
01:59 2.9 °C 1.4 °C 1010.7 hPa ESE 5 km/h 20.9 km/h 90 % 0 mm
02:04 2.8 °C 1.3 °C 1010.7 hPa SE 5 km/h 22.5 km/h 90 % 0 mm
02:09 2.7 °C 1.2 °C 1010.7 hPa SE 13.7 km/h 25.7 km/h 90 % 0 mm
02:14 2.6 °C 1.1 °C 1011.1 hPa ESE 15.4 km/h 22.5 km/h 90 % 0 mm
02:19 2.6 °C 1.1 °C 1011.1 hPa SE 6.9 km/h 20.9 km/h 90 % 0 mm
02:24 2.5 °C 1 °C 1011.1 hPa East 11.9 km/h 24.1 km/h 90 % 0 mm
02:29 2.4 °C 0.9 °C 1011.1 hPa SE 6.9 km/h 16.1 km/h 90 % 0 mm
02:34 2.4 °C 0.9 °C 1011.4 hPa SE 13.7 km/h 19.3 km/h 90 % 0 mm
02:39 2.3 °C 1 °C 1011.4 hPa ESE 10.1 km/h 17.7 km/h 91 % 0 mm
02:44 2.3 °C 0.8 °C 1011.4 hPa ESE 13.7 km/h 24.1 km/h 90 % 0 mm
02:49 2.3 °C 1 °C 1011.4 hPa ESE 8.7 km/h 20.9 km/h 91 % 0 mm
02:54 2.2 °C 0.9 °C 1011.7 hPa East 6.9 km/h 17.7 km/h 91 % 0 mm
02:59 2.3 °C 1 °C 1011.7 hPa ENE 6.9 km/h 19.3 km/h 91 % 0 mm
03:04 2.3 °C 1 °C 1011.7 hPa ENE 13.7 km/h 29 km/h 91 % 0 mm
03:09 2.3 °C 1 °C 1011.7 hPa East 10.1 km/h 22.5 km/h 91 % 0 mm
03:14 2.3 °C 1 °C 1011.7 hPa SE 3.2 km/h 17.7 km/h 91 % 0 mm
03:19 2.3 °C 1 °C 1011.7 hPa East 5 km/h 19.3 km/h 91 % 0 mm
03:24 2.3 °C 1 °C 1011.7 hPa ESE 10.1 km/h 19.3 km/h 91 % 0 mm
03:29 2.4 °C 1.1 °C 1011.7 hPa ENE 13.7 km/h 25.7 km/h 91 % 0 mm
03:34 2.4 °C 1.1 °C 1012.1 hPa ESE 10.1 km/h 19.3 km/h 91 % 0 mm
03:39 2.4 °C 1.1 °C 1012.1 hPa SE 6.9 km/h 29 km/h 91 % 0 mm
03:44 2.4 °C 1.1 °C 1012.1 hPa ENE 8.7 km/h 20.9 km/h 91 % 0 mm
03:49 2.4 °C 0.9 °C 1012.1 hPa SSE 13.7 km/h 16.1 km/h 90 % 0 mm
03:54 2.4 °C 0.9 °C 1012.1 hPa East 8.7 km/h 19.3 km/h 90 % 0 mm
03:59 2.5 °C 1 °C 1012.1 hPa East 8.7 km/h 24.1 km/h 90 % 0 mm
04:04 2.5 °C 1 °C 1012.1 hPa SE 13.7 km/h 22.5 km/h 90 % 0 mm
04:09 2.5 °C 1 °C 1012.1 hPa East 13.7 km/h 22.5 km/h 90 % 0 mm
04:14 2.5 °C 1 °C 1012.4 hPa East 13.7 km/h 14.5 km/h 90 % 0 mm
04:19 2.5 °C 1 °C 1012.4 hPa ESE 13.7 km/h 14.5 km/h 90 % 0 mm
04:24 2.5 °C 1 °C 1012.4 hPa ESE 5 km/h 19.3 km/h 90 % 0 mm
04:29 2.5 °C 1 °C 1012.4 hPa ESE 5 km/h 19.3 km/h 90 % 0 mm
04:34 2.5 °C 1 °C 1012.4 hPa SSE 5 km/h 16.1 km/h 90 % 0 mm
04:39 2.5 °C 1 °C 1012.8 hPa East 8.7 km/h 20.9 km/h 90 % 0 mm
04:44 2.5 °C 1 °C 1012.8 hPa SSW 5 km/h 11.3 km/h 90 % 0 mm
04:49 2.5 °C 1 °C 1012.8 hPa SE 15.4 km/h 16.1 km/h 90 % 0 mm
04:54 2.5 °C 1 °C 1012.8 hPa ESE 15.4 km/h 17.7 km/h 90 % 0 mm
04:59 2.5 °C 1 °C 1012.8 hPa SE 15.4 km/h 16.1 km/h 90 % 0 mm
05:04 2.5 °C 1 °C 1013.1 hPa East 10.1 km/h 19.3 km/h 90 % 0 mm
05:09 2.6 °C 1.1 °C 1013.1 hPa East 10.1 km/h 24.1 km/h 90 % 0 mm
05:14 2.5 °C 1 °C 1013.1 hPa ESE 6.9 km/h 19.3 km/h 90 % 0 mm
05:19 2.6 °C 1.1 °C 1013.1 hPa ESE 6.9 km/h 22.5 km/h 90 % 0 mm
05:24 2.6 °C 1.1 °C 1013.4 hPa SE 8.7 km/h 16.1 km/h 90 % 0 mm
05:29 2.6 °C 1.1 °C 1013.4 hPa SSE 10.1 km/h 11.3 km/h 90 % 0 mm
05:34 2.6 °C 1.1 °C 1013.4 hPa ESE 10.1 km/h 20.9 km/h 90 % 0 mm
05:39 2.6 °C 1.1 °C 1013.1 hPa ESE 8.7 km/h 19.3 km/h 90 % 0 mm
05:44 2.6 °C 1.1 °C 1013.4 hPa SE 10.1 km/h 19.3 km/h 90 % 0 mm
05:49 2.6 °C 1.1 °C 1013.4 hPa SE 5 km/h 16.1 km/h 90 % 0 mm
05:54 2.6 °C 1.1 °C 1013.4 hPa East 8.7 km/h 25.7 km/h 90 % 0 mm
05:59 2.6 °C 1.1 °C 1013.4 hPa SE 13.7 km/h 17.7 km/h 90 % 0 mm
06:04 2.6 °C 1.1 °C 1013.4 hPa ESE 6.9 km/h 19.3 km/h 90 % 0 mm
06:09 2.6 °C 1.1 °C 1013.8 hPa SE 5 km/h 16.1 km/h 90 % 0 mm
06:14 2.6 °C 1.1 °C 1014.1 hPa East 5 km/h 24.1 km/h 90 % 0 mm
06:19 2.6 °C 1.1 °C 1014.1 hPa SE 13.7 km/h 14.5 km/h 90 % 0 mm
06:24 2.6 °C 1.1 °C 1014.1 hPa SE 11.9 km/h 19.3 km/h 90 % 0 mm
06:29 2.6 °C 1.1 °C 1014.1 hPa SE 5 km/h 19.3 km/h 90 % 0 mm
06:34 2.6 °C 1.1 °C 1014.1 hPa East 3.2 km/h 17.7 km/h 90 % 0 mm
06:39 2.6 °C 1.1 °C 1014.1 hPa ESE 11.9 km/h 17.7 km/h 90 % 0 mm
06:44 2.6 °C 1.1 °C 1014.1 hPa ESE 11.9 km/h 16.1 km/h 90 % 0 mm
06:49 2.6 °C 1 °C 1014.1 hPa SE 3.2 km/h 16.1 km/h 89 % 0 mm
06:54 2.6 °C 1 °C 1014.4 hPa SSE 5 km/h 17.7 km/h 89 % 0 mm
06:59 2.5 °C 1 °C 1014.4 hPa ENE 8.7 km/h 19.3 km/h 90 % 0 mm
07:04 2.5 °C 1 °C 1014.4 hPa ESE 3.2 km/h 20.9 km/h 90 % 0 mm
07:09 2.4 °C 0.9 °C 1014.4 hPa South 8.7 km/h 14.5 km/h 90 % 0 mm
07:14 2.4 °C 0.9 °C 1014.4 hPa SE 8.7 km/h 14.5 km/h 90 % 0 mm
07:19 2.4 °C 0.9 °C 1014.4 hPa SE 8.7 km/h 20.9 km/h 90 % 0 mm
07:24 2.4 °C 0.9 °C 1014.8 hPa SE 11.9 km/h 17.7 km/h 90 % 0 mm
07:29 2.4 °C 0.9 °C 1014.8 hPa SSE 6.9 km/h 16.1 km/h 90 % 0 mm
07:34 2.4 °C 0.9 °C 1014.8 hPa SSE 5 km/h 17.7 km/h 90 % 0 mm
07:39 2.4 °C 0.9 °C 1014.8 hPa SE 10.1 km/h 20.9 km/h 90 % 0 mm
07:44 2.3 °C 0.8 °C 1015.1 hPa SSE 6.9 km/h 17.7 km/h 90 % 0 mm
07:49 2.3 °C 0.8 °C 1015.1 hPa SSE 15.4 km/h 16.1 km/h 90 % 0 mm
07:54 2.3 °C 0.8 °C 1015.1 hPa SE 11.9 km/h 20.9 km/h 90 % 0 mm
07:58 2.3 °C 0.8 °C 1015.1 hPa East 5 km/h 14.5 km/h 90 % 0 mm
08:04 2.4 °C 0.9 °C 1015.1 hPa East 8.7 km/h 14.5 km/h 90 % 0 mm
08:09 2.3 °C 0.8 °C 1015.1 hPa SE 10.1 km/h 20.9 km/h 90 % 0 mm
08:14 2.4 °C 0.9 °C 1015.1 hPa SE 11.9 km/h 19.3 km/h 90 % 0 mm
08:19 2.4 °C 0.9 °C 1015.1 hPa ESE 5 km/h 17.7 km/h 90 % 0 mm
08:24 2.4 °C 0.9 °C 1015.5 hPa East 15.4 km/h 17.7 km/h 90 % 0 mm
08:29 2.4 °C 0.9 °C 1015.1 hPa ENE 5 km/h 14.5 km/h 90 % 0 mm
08:34 2.4 °C 0.9 °C 1015.5 hPa SE 13.7 km/h 14.5 km/h 90 % 0 mm
08:39 2.4 °C 0.9 °C 1015.5 hPa East 8.7 km/h 22.5 km/h 90 % 0 mm
08:44 2.4 °C 0.9 °C 1015.8 hPa SSE 6.9 km/h 14.5 km/h 90 % 0 mm
08:49 2.4 °C 0.9 °C 1015.8 hPa ESE 13.7 km/h 17.7 km/h 90 % 0 mm
08:54 2.4 °C 0.9 °C 1015.8 hPa East 6.9 km/h 8 km/h 90 % 0 mm
08:59 2.4 °C 0.9 °C 1015.8 hPa ESE 5 km/h 19.3 km/h 90 % 0 mm
09:04 2.4 °C 0.9 °C 1015.8 hPa East 10.1 km/h 19.3 km/h 90 % 0 mm
09:09 2.5 °C 1 °C 1015.8 hPa ESE 11.9 km/h 17.7 km/h 90 % 0 mm
09:14 2.6 °C 1.1 °C 1015.8 hPa SSE 15.4 km/h 19.3 km/h 90 % 0 mm
09:19 2.6 °C 1 °C 1015.8 hPa East 15.4 km/h 20.9 km/h 89 % 0 mm
09:24 2.6 °C 1 °C 1016.1 hPa East 8.7 km/h 20.9 km/h 89 % 0 mm
09:29 2.7 °C 1.1 °C 1016.1 hPa SE 5 km/h 19.3 km/h 89 % 0 mm
09:34 2.7 °C 1.2 °C 1016.5 hPa SSE 10.1 km/h 16.1 km/h 90 % 0 mm
09:39 2.8 °C 1.2 °C 1016.5 hPa ENE 11.9 km/h 20.9 km/h 89 % 0 mm
09:44 2.8 °C 1.2 °C 1016.5 hPa East 8.7 km/h 14.5 km/h 89 % 0 mm
09:49 2.8 °C 1.2 °C 1016.5 hPa SE 6.9 km/h 14.5 km/h 89 % 0 mm
09:54 2.9 °C 1.3 °C 1016.8 hPa ESE 8.7 km/h 17.7 km/h 89 % 0 mm
09:59 2.9 °C 1.3 °C 1016.8 hPa ESE 16.9 km/h 20.9 km/h 89 % 0 mm
10:04 3 °C 1.4 °C 1016.8 hPa ESE 18.7 km/h 22.5 km/h 89 % 0 mm
10:09 3 °C 1.4 °C 1016.8 hPa ESE 13.7 km/h 25.7 km/h 89 % 0 mm
10:14 3.1 °C 1.5 °C 1016.8 hPa SSW 8.7 km/h 14.5 km/h 89 % 0 mm
10:19 3.1 °C 1.3 °C 1016.8 hPa ENE 8.7 km/h 22.5 km/h 88 % 0 mm
10:24 3.2 °C 1.4 °C 1017.2 hPa SE 13.7 km/h 14.5 km/h 88 % 0 mm
10:29 3.2 °C 1.4 °C 1017.2 hPa SE 5 km/h 20.9 km/h 88 % 0 mm
10:34 3.2 °C 1.2 °C 1017.2 hPa ENE 11.9 km/h 22.5 km/h 87 % 0 mm
10:39 3.2 °C 1.2 °C 1017.2 hPa SE 10.1 km/h 19.3 km/h 87 % 0 mm
10:44 3.2 °C 1.2 °C 1017.2 hPa ESE 6.9 km/h 24.1 km/h 87 % 0 mm
10:49 3.2 °C 1.2 °C 1017.5 hPa ESE 11.9 km/h 22.5 km/h 87 % 0 mm
10:54 3.2 °C 1.2 °C 1017.5 hPa SE 8.7 km/h 20.9 km/h 87 % 0 mm
10:59 3.2 °C 1.2 °C 1017.5 hPa South 5 km/h 17.7 km/h 87 % 0 mm
11:04 3.2 °C 1.2 °C 1017.5 hPa ENE 18.7 km/h 19.3 km/h 87 % 0 mm
11:09 3.3 °C 1.3 °C 1017.5 hPa ESE 5 km/h 17.7 km/h 87 % 0 mm
11:14 3.3 °C 1.3 °C 1017.5 hPa East 5 km/h 19.3 km/h 87 % 0 mm
11:19 3.4 °C 1.4 °C 1017.8 hPa SE 11.9 km/h 14.5 km/h 87 % 0 mm
11:24 3.4 °C 1.4 °C 1017.8 hPa ESE 11.9 km/h 17.7 km/h 87 % 0 mm
11:29 3.4 °C 1.4 °C 1017.8 hPa ESE 16.9 km/h 19.3 km/h 87 % 0 mm
11:34 3.4 °C 1.3 °C 1017.8 hPa ESE 6.9 km/h 20.9 km/h 86 % 0 mm
11:39 3.4 °C 1.4 °C 1017.8 hPa SSE 5 km/h 17.7 km/h 87 % 0 mm
11:44 3.4 °C 1.4 °C 1017.8 hPa SSW 6.9 km/h 19.3 km/h 87 % 0 mm
11:49 3.5 °C 1.5 °C 1017.8 hPa South 8.7 km/h 22.5 km/h 87 % 0 mm
11:54 3.6 °C 1.5 °C 1017.8 hPa ESE 20.6 km/h 22.5 km/h 86 % 0 mm
11:59 3.7 °C 1.7 °C 1017.8 hPa SE 6.9 km/h 16.1 km/h 87 % 0 mm
12:04 3.8 °C 1.7 °C 1017.5 hPa SE 13.7 km/h 16.1 km/h 86 % 0 mm
12:09 3.8 °C 1.7 °C 1017.8 hPa SE 13.7 km/h 17.7 km/h 86 % 0 mm
12:14 3.9 °C 1.8 °C 1017.8 hPa ESE 6.9 km/h 22.5 km/h 86 % 0 mm
12:19 4.1 °C 2 °C 1017.8 hPa SE 8.7 km/h 14.5 km/h 86 % 0 mm
12:24 4.2 °C 1.9 °C 1017.8 hPa SSE 5 km/h 16.1 km/h 85 % 0 mm
12:29 4.3 °C 2 °C 1017.8 hPa East 15.4 km/h 19.3 km/h 85 % 0 mm
12:34 4.3 °C 2 °C 1017.8 hPa ESE 1.8 km/h 11.3 km/h 85 % 0 mm
12:39 4.5 °C 2.2 °C 1017.8 hPa ESE 10.1 km/h 11.3 km/h 85 % 0 mm
12:44 4.6 °C 2.3 °C 1017.8 hPa SSE 10.1 km/h 11.3 km/h 85 % 0 mm
12:49 4.7 °C 2.2 °C 1017.8 hPa ESE 6.9 km/h 14.5 km/h 84 % 0 mm
12:54 4.8 °C 2.3 °C 1017.8 hPa ESE 10.1 km/h 20.9 km/h 84 % 0 mm
12:59 4.9 °C 2.4 °C 1017.8 hPa SE 8.7 km/h 16.1 km/h 84 % 0 mm
13:04 4.9 °C 2.3 °C 1017.8 hPa East 6.9 km/h 14.5 km/h 83 % 0 mm
13:09 4.9 °C 2.3 °C 1017.8 hPa ESE 8.7 km/h 17.7 km/h 83 % 0 mm
13:14 5.1 °C 2.5 °C 1017.8 hPa ESE 10.1 km/h 11.3 km/h 83 % 0 mm
13:19 5.2 °C 2.5 °C 1017.8 hPa East 11.9 km/h 17.7 km/h 83 % 0 mm
13:24 5.2 °C 2.5 °C 1017.8 hPa East 15.4 km/h 17.7 km/h 83 % 0 mm
13:29 5.3 °C 2.5 °C 1017.8 hPa SE 6.9 km/h 16.1 km/h 82 % 0 mm
13:34 5.3 °C 2.5 °C 1017.8 hPa East 3.2 km/h 17.7 km/h 82 % 0 mm
13:39 5.4 °C 2.6 °C 1017.8 hPa East 8.7 km/h 14.5 km/h 82 % 0 mm
13:44 5.5 °C 2.7 °C 1017.8 hPa ESE 6.9 km/h 14.5 km/h 82 % 0 mm
13:49 5.6 °C 2.8 °C 1017.8 hPa East 6.9 km/h 17.7 km/h 82 % 0 mm
13:54 5.7 °C 2.7 °C 1017.8 hPa ESE 6.9 km/h 17.7 km/h 81 % 0 mm
13:59 5.6 °C 2.6 °C 1017.8 hPa ENE 5 km/h 17.7 km/h 81 % 0 mm
14:04 5.6 °C 2.6 °C 1017.8 hPa ENE 3.2 km/h 17.7 km/h 81 % 0 mm
14:09 5.7 °C 2.9 °C 1017.8 hPa ESE 8.7 km/h 17.7 km/h 82 % 0 mm
14:14 5.7 °C 2.7 °C 1017.8 hPa East 10.1 km/h 17.7 km/h 81 % 0 mm
14:19 5.4 °C 2.2 °C 1017.8 hPa ENE 10.1 km/h 17.7 km/h 80 % 0 mm
14:24 5.3 °C 2.3 °C 1018.2 hPa ENE 8.7 km/h 16.1 km/h 81 % 0 mm
14:29 5.2 °C 2.4 °C 1018.2 hPa ESE 6.9 km/h 16.1 km/h 82 % 0 mm
14:34 5.1 °C 2.3 °C 1017.8 hPa ENE 6.9 km/h 16.1 km/h 82 % 0 mm
14:39 5 °C 2.4 °C 1018.2 hPa ESE 13.7 km/h 17.7 km/h 83 % 0 mm
14:44 4.9 °C 2.3 °C 1018.2 hPa SE 8.7 km/h 11.3 km/h 83 % 0 mm
14:49 4.9 °C 2.3 °C 1018.2 hPa ESE 8.7 km/h 17.7 km/h 83 % 0 mm
14:54 4.9 °C 2.3 °C 1018.2 hPa ENE 10.1 km/h 19.3 km/h 83 % 0 mm
14:59 4.8 °C 2.2 °C 1018.2 hPa East 13.7 km/h 17.7 km/h 83 % 0 mm
15:04 4.8 °C 2.3 °C 1018.2 hPa East 3.2 km/h 17.7 km/h 84 % 0 mm
15:09 4.8 °C 2.3 °C 1018.2 hPa East 8.7 km/h 14.5 km/h 84 % 0 mm
15:14 4.8 °C 2.3 °C 1018.2 hPa East 8.7 km/h 14.5 km/h 84 % 0 mm
15:19 4.8 °C 2.3 °C 1018.2 hPa East 3.2 km/h 14.5 km/h 84 % 0 mm
15:24 4.7 °C 2.2 °C 1018.2 hPa ESE 6.9 km/h 19.3 km/h 84 % 0 mm
15:29 4.7 °C 2.2 °C 1018.2 hPa East 3.2 km/h 11.3 km/h 84 % 0 mm
15:34 4.6 °C 2.3 °C 1018.2 hPa East 5 km/h 14.5 km/h 85 % 0 mm
15:39 4.6 °C 2.1 °C 1018.2 hPa ESE 5 km/h 19.3 km/h 84 % 0 mm
15:44 4.5 °C 2.2 °C 1018.5 hPa ENE 6.9 km/h 11.3 km/h 85 % 0 mm
15:49 4.5 °C 2.2 °C 1018.2 hPa ESE 6.9 km/h 9.7 km/h 85 % 0 mm
15:54 4.4 °C 2.1 °C 1018.5 hPa East 8.7 km/h 14.5 km/h 85 % 0 mm
15:59 4.4 °C 2.1 °C 1018.5 hPa East 5 km/h 14.5 km/h 85 % 0 mm
16:04 4.4 °C 2.1 °C 1018.5 hPa ESE 3.2 km/h 16.1 km/h 85 % 0 mm
16:09 4.4 °C 2.3 °C 1018.5 hPa ESE 5 km/h 9.7 km/h 86 % 0 mm
16:14 4.4 °C 2.3 °C 1018.5 hPa East 8.7 km/h 8 km/h 86 % 0 mm
16:19 4.4 °C 2.3 °C 1018.8 hPa SE 3.2 km/h 8 km/h 86 % 0 mm
16:24 4.4 °C 2.3 °C 1018.8 hPa East 5 km/h 11.3 km/h 86 % 0 mm
16:29 4.3 °C 2.2 °C 1018.8 hPa East 10.1 km/h 20.9 km/h 86 % 0 mm
16:34 4.2 °C 2.1 °C 1018.8 hPa ESE 8.7 km/h 16.1 km/h 86 % 0 mm
16:39 4.2 °C 2.1 °C 1018.8 hPa NE 8.7 km/h 16.1 km/h 86 % 0 mm
16:44 4.1 °C 2 °C 1018.8 hPa ESE 6.9 km/h 17.7 km/h 86 % 0 mm
16:49 4.1 °C 2.1 °C 1018.8 hPa ESE 5 km/h 14.5 km/h 87 % 0 mm
16:54 4 °C 2 °C 1018.8 hPa ENE 5 km/h 17.7 km/h 87 % 0 mm
16:59 4 °C 2 °C 1018.8 hPa East 15.4 km/h 16.1 km/h 87 % 0 mm
17:04 3.9 °C 1.9 °C 1019.2 hPa ENE 11.9 km/h 11.3 km/h 87 % 0 mm
17:09 3.9 °C 1.9 °C 1019.2 hPa SE 3.2 km/h 9.7 km/h 87 % 0 mm
17:14 3.9 °C 1.9 °C 1019.2 hPa East 11.9 km/h 11.3 km/h 87 % 0 mm
17:19 3.9 °C 1.9 °C 1019.2 hPa East 10.1 km/h 17.7 km/h 87 % 0 mm
17:24 3.9 °C 1.9 °C 1019.2 hPa East 6.9 km/h 8 km/h 87 % 0 mm
17:29 3.8 °C 1.8 °C 1019.2 hPa SE 10.1 km/h 14.5 km/h 87 % 0 mm
17:34 3.8 °C 1.8 °C 1019.2 hPa East 8.7 km/h 17.7 km/h 87 % 0 mm
17:39 3.8 °C 1.8 °C 1019.2 hPa East 8.7 km/h 14.5 km/h 87 % 0 mm
17:44 3.8 °C 1.8 °C 1019.2 hPa ESE 3.2 km/h 11.3 km/h 87 % 0 mm
17:49 3.8 °C 1.8 °C 1019.5 hPa East 5 km/h 11.3 km/h 87 % 0 mm
17:54 3.8 °C 1.8 °C 1019.5 hPa East 6.9 km/h 11.3 km/h 87 % 0 mm
17:59 3.8 °C 1.8 °C 1019.5 hPa ENE 6.9 km/h 11.3 km/h 87 % 0 mm
18:04 3.8 °C 1.8 °C 1019.5 hPa East 8.7 km/h 14.5 km/h 87 % 0 mm
18:09 3.8 °C 1.8 °C 1019.5 hPa East 6.9 km/h 9.7 km/h 87 % 0 mm
18:14 3.8 °C 1.8 °C 1019.5 hPa ESE 6.9 km/h 14.5 km/h 87 % 0 mm
18:19 3.8 °C 2 °C 1019.5 hPa East 8.7 km/h 8 km/h 88 % 0 mm
18:24 3.8 °C 2 °C 1019.5 hPa ESE 3.2 km/h 11.3 km/h 88 % 0 mm
18:29 3.8 °C 2 °C 1019.5 hPa East 6.9 km/h 9.7 km/h 88 % 0 mm
18:34 3.8 °C 2 °C 1019.5 hPa ENE 11.9 km/h 11.3 km/h 88 % 0 mm
18:39 3.8 °C 2 °C 1019.5 hPa East 5 km/h 11.3 km/h 88 % 0 mm
18:44 3.8 °C 2 °C 1019.5 hPa East 13.7 km/h 19.3 km/h 88 % 0 mm
18:49 3.8 °C 2 °C 1019.5 hPa East 11.9 km/h 11.3 km/h 88 % 0 mm
18:54 3.8 °C 2 °C 1019.5 hPa East 11.9 km/h 16.1 km/h 88 % 0 mm
18:59 3.8 °C 2 °C 1019.5 hPa ESE 3.2 km/h 11.3 km/h 88 % 0 mm
19:04 3.8 °C 2 °C 1019.5 hPa ENE 5 km/h 9.7 km/h 88 % 0 mm
19:09 3.8 °C 2 °C 1019.5 hPa ESE 3.2 km/h 9.7 km/h 88 % 0 mm
19:14 3.8 °C 2 °C 1019.5 hPa ESE 3.2 km/h 14.5 km/h 88 % 0 mm
19:19 3.8 °C 2 °C 1019.5 hPa ENE 8.7 km/h 9.7 km/h 88 % 0 mm
19:24 3.8 °C 2 °C 1019.9 hPa East 10.1 km/h 11.3 km/h 88 % 0 mm
19:29 3.8 °C 2 °C 1019.9 hPa East 6.9 km/h 9.7 km/h 88 % 0 mm
19:34 3.8 °C 2 °C 1019.9 hPa ENE 1.8 km/h 17.7 km/h 88 % 0 mm
19:39 3.8 °C 2 °C 1019.9 hPa East 6.9 km/h 17.7 km/h 88 % 0 mm
19:44 3.8 °C 2 °C 1019.9 hPa East 8.7 km/h 11.3 km/h 88 % 0 mm
19:49 3.9 °C 2.1 °C 1019.9 hPa ESE 8.7 km/h 8 km/h 88 % 0 mm
19:54 3.9 °C 2.1 °C 1019.9 hPa SE 11.9 km/h 14.5 km/h 88 % 0 mm
19:59 3.9 °C 2.1 °C 1019.9 hPa SE 11.9 km/h 14.5 km/h 88 % 0 mm
20:04 3.9 °C 2.1 °C 1019.9 hPa ENE 5 km/h 16.1 km/h 88 % 0 mm
20:09 3.9 °C 2.1 °C 1019.9 hPa NE 5 km/h 11.3 km/h 88 % 0 mm
20:14 3.9 °C 2.1 °C 1020.2 hPa SE 10.1 km/h 11.3 km/h 88 % 0 mm
20:19 3.9 °C 2.1 °C 1020.2 hPa South 5 km/h 9.7 km/h 88 % 0 mm
20:24 3.9 °C 2.1 °C 1020.2 hPa ESE 8.7 km/h 11.3 km/h 88 % 0 mm
20:29 3.9 °C 2.1 °C 1020.2 hPa East 10.1 km/h 14.5 km/h 88 % 0 mm
20:34 3.9 °C 2.1 °C 1020.2 hPa SE 10.1 km/h 17.7 km/h 88 % 0 mm
20:39 3.8 °C 1.8 °C 1020.2 hPa ESE 8.7 km/h 19.3 km/h 87 % 0 mm
20:44 3.8 °C 1.8 °C 1020.2 hPa SE 6.9 km/h 11.3 km/h 87 % 0 mm
20:49 3.8 °C 1.8 °C 1020.2 hPa SE 8.7 km/h 11.3 km/h 87 % 0 mm
20:54 3.8 °C 1.8 °C 1020.2 hPa ESE 1.8 km/h 9.7 km/h 87 % 0 mm
20:59 3.8 °C 1.8 °C 1020.2 hPa ESE 10.1 km/h 16.1 km/h 87 % 0 mm
weerstationalkmaarcentrum
Gegevens verzameld door Weather Underground - 5.25 mb

Script ontwikkeld door  Jim McMurry - jmcmurry@mwt.net Aangepast voor de template door  Wim van der Kuil - Leuven-Template.eu

U vindt ons ook hier:

Het Weer Aktueel

European Weather Network

WeatherCloud

Weather Underground

AWEKAS

HAMweather, WeatherForYou, PWS Weather

Apparatuur in gebruik:

Weerstation
Davis VP2

Weerprogramma
Meteobridge

Weercomputer
Asus WL -330N3G

Webleverancier
Hostnet

Davis VP2

Meteobridge

Asus WL -330N3G

Hostnet